(291727) = 2006 JX37

Discovered at Anderson Mesa on 2006-05-05 by LONEOS.

Orbit

Orbit type: Main Belt

Note: WebGL enabled browser required.

epoch2023-09-13.0
epoch JD2460200.5
perihelion date2023-02-17.50139
perihelion JD2459993.00139
argument of perihelion (°)89.19975
ascending node (°)188.16032
inclination (°)5.73540
eccentricity0.1597445
perihelion distance (AU)1.8574907
Tisserand w.r.t. Jupiter3.6
ΔV w.r.t. Earth (km/sec)8.6
semimajor axis (AU)2.2106261
mean anomaly (°)62.22231
mean daily motion (°/day)0.29986850
aphelion distance (AU)2.564
period (years)3.29
P-vector [x]0.12739391
P-vector [y]-0.94512449
P-vector [z]-0.30084963
Q-vector [x]0.99175076
Q-vector [y]0.11704180
Q-vector [z]0.05226510
absolute magnitude17.77
phase slope0.15
uncertainty0
referenceMPO 779092
observations used298
oppositions13
arc length (days)8439
first opposition used2000
last opposition used2023
residual rms (arc-secs)0.76
perturbers coarse indicatorM-v
perturbers precise indicator003Ek
first observation date used2000-10-01.0
last observation date used2023-11-09.0
computer nameMPCLINUX
JD of orbit computation2456612.750572
perihelion JD uncertainty (days)9.5616E-05
argument of perihelion uncertainty (°)5.8115E-05
ascending node uncertainty (°)4.9068E-05
inclination uncertainty (°)8.6221E-06
eccentricity uncertainty 5.1882E-08
perihelion distance uncertainty (AU)1.0715E-07
Minimum Orbit Intersection Distances (in AU)
for orbit epoch: 2460200.5, reference: E2023-VG7
Mercury1.40496
Venus1.13878
Earth0.85158
Mars0.40789
Jupiter2.55348
Saturn6.50355
Uranus16.0742
Neptune27.423

Observations

307 total observations over interval: 2000 10 01.17571 – 2023 11 09.286186
These data are available for download (format description).

Date (UT) J2000 RA J2000 Dec Magn Location Ref
2000 10 01.17571 00 00 22.28 +00 55 23.0 19.2   704 – Lincoln Laboratory ETS, New Mexico MPS 344905
2000 10 01.19099 00 00 21.38 +00 55 14.1 18.6   704 – Lincoln Laboratory ETS, New Mexico MPS 344905
2000 10 01.20607 00 00 20.60 +00 55 06.5 19.1   704 – Lincoln Laboratory ETS, New Mexico MPS 344905
2000 10 01.23625 00 00 18.98 +00 54 48.7 19.7   704 – Lincoln Laboratory ETS, New Mexico MPS 344905
2003 05 26.42665 20 12 35.11 -10 10 53.4 20.8 V 691 – Steward Observatory, Kitt Peak-Spacewatch MPS 278676
2003 05 26.43982 20 12 35.58 -10 10 48.5 21.0 V 691 – Steward Observatory, Kitt Peak-Spacewatch MPS 278676
2003 05 26.45774 20 12 36.17 -10 10 41.2 20.9 V 691 – Steward Observatory, Kitt Peak-Spacewatch MPS 278676
2006 04 21.27915 15 08 12.78 -11 30 45.9   691 – Steward Observatory, Kitt Peak-Spacewatch MPS 173971
2006 04 21.29647 15 08 12.01 -11 30 37.3   691 – Steward Observatory, Kitt Peak-Spacewatch MPS 173971
2006 04 21.31380 15 08 11.25 -11 30 28.9   691 – Steward Observatory, Kitt Peak-Spacewatch MPS 173971
2006 05 05.33403 14 56 39.08 -09 31 43.9 19.2 R 699 – Lowell Observatory-LONEOS MPS 171465
2006 05 05.34315 14 56 38.59 -09 31 38.5   699 – Lowell Observatory-LONEOS MPS 171465
2006 05 05.35229 14 56 37.99 -09 31 34.3   699 – Lowell Observatory-LONEOS MPS 171465
2006 05 05.36141 14 56 37.49 -09 31 29.7   699 – Lowell Observatory-LONEOS MPS 171465
2006 05 08.20317 14 54 03.29 -09 08 08.2 20.0 V 691 – Steward Observatory, Kitt Peak-Spacewatch MPS 171465
2006 05 08.22049 14 54 02.31 -09 07 59.7 19.7 V 691 – Steward Observatory, Kitt Peak-Spacewatch MPS 171465
2006 05 08.23780 14 54 01.32 -09 07 51.6 19.7 V 691 – Steward Observatory, Kitt Peak-Spacewatch MPS 171465
2006 05 25.25128 14 39 52.77 -07 12 24.1 19.4 V 703 – Catalina Sky Survey MPS 173971
2006 05 25.26017 14 39 52.41 -07 12 22.8 19.7 V 703 – Catalina Sky Survey MPS 173971
2006 05 25.26909 14 39 52.02 -07 12 19.7 19.4 V 703 – Catalina Sky Survey MPS 173971
2006 05 25.27797 14 39 51.66 -07 12 17.7 20.1 V 703 – Catalina Sky Survey MPS 173971
2009 02 20.28930 11 47 22.24 -02 28 07.0 20.9 V 691 – Steward Observatory, Kitt Peak-Spacewatch MPS 278676
2009 02 20.30740 11 47 21.52 -02 28 00.3 21.0 V 691 – Steward Observatory, Kitt Peak-Spacewatch MPS 278676
2009 02 20.32575 11 47 20.79 -02 27 53.6 20.5 V 691 – Steward Observatory, Kitt Peak-Spacewatch MPS 278676
2009 02 28.23896 11 41 36.48 -01 34 46.4   691 – Steward Observatory, Kitt Peak-Spacewatch MPS 278676
2009 02 28.25657 11 41 35.57 -01 34 38.5   691 – Steward Observatory, Kitt Peak-Spacewatch MPS 278676
2009 02 28.27419 11 41 34.70 -01 34 30.6   691 – Steward Observatory, Kitt Peak-Spacewatch MPS 278676
2009 03 01.27869 11 40 45.30 -01 26 52.0   691 – Steward Observatory, Kitt Peak-Spacewatch MPS 278676
2009 03 01.29634 11 40 44.39 -01 26 43.5   691 – Steward Observatory, Kitt Peak-Spacewatch MPS 278676
2009 03 01.31143 11 40 43.58 -01 26 36.2   691 – Steward Observatory, Kitt Peak-Spacewatch MPS 278676
2010 08 19.37705 01 58 41.63 +12 22 55.4   691 – Steward Observatory, Kitt Peak-Spacewatch MPS 344905
2010 08 19.42327 01 58 42.76 +12 22 53.7   691 – Steward Observatory, Kitt Peak-Spacewatch MPS 344905
2010 08 19.46953 01 58 43.83 +12 22 53.5   691 – Steward Observatory, Kitt Peak-Spacewatch MPS 344905
2010 10 02.38729 01 47 52.10 +08 57 55.9 20.4 V 691 – Steward Observatory, Kitt Peak-Spacewatch MPS 349471
2010 10 02.40492 01 47 51.19 +08 57 47.4 20.8 V 691 – Steward Observatory, Kitt Peak-Spacewatch MPS 349471
2010 10 02.42255 01 47 50.15 +08 57 38.5 20.6 V 691 – Steward Observatory, Kitt Peak-Spacewatch MPS 349471
2010 10 07.542030 01 43 14.323 +08 13 48.38 20.77 g F51 – Pan-STARRS 1, Haleakala MPS 365596
2010 10 07.554206 01 43 13.610 +08 13 42.17 20.92 g F51 – Pan-STARRS 1, Haleakala MPS 365596
2010 10 08.36507 01 42 28.12 +08 06 35.0 20.4 V 691 – Steward Observatory, Kitt Peak-Spacewatch MPS 351255
2010 10 08.38017 01 42 27.20 +08 06 26.8 20.4 V 691 – Steward Observatory, Kitt Peak-Spacewatch MPS 351255
2010 10 08.39527 01 42 26.33 +08 06 19.4 20.4 V 691 – Steward Observatory, Kitt Peak-Spacewatch MPS 351255
2010 10 12.38180 01 38 36.89 +07 31 09.4 20.6 V 691 – Steward Observatory, Kitt Peak-Spacewatch MPS 351255
2010 10 12.39948 01 38 35.83 +07 30 59.6 20.8 V 691 – Steward Observatory, Kitt Peak-Spacewatch MPS 351255
2010 10 12.41716 01 38 34.76 +07 30 50.1 20.4 V 691 – Steward Observatory, Kitt Peak-Spacewatch MPS 351255
2010 10 30.347364 01 21 46.932 +05 02 08.08 20.82 w F51 – Pan-STARRS 1, Haleakala MPS 365596
2010 10 30.361375 01 21 46.200 +05 02 02.06 20.81 w F51 – Pan-STARRS 1, Haleakala MPS 365596
2010 10 30.375701 01 21 45.445 +05 01 55.78 20.82 w F51 – Pan-STARRS 1, Haleakala MPS 365596
2012 03 16.19405 08 35 24.03 +12 43 50.4 21.8 V G96 – Mt. Lemmon Survey MPS 417138
2012 03 16.19986 08 35 24.00 +12 43 51.7 21.3 V G96 – Mt. Lemmon Survey MPS 417138
2012 03 16.20576 08 35 23.85 +12 43 53.2 21.6 V G96 – Mt. Lemmon Survey MPS 417138
2012 03 16.21164 08 35 23.56 +12 43 55.4 20.2 V G96 – Mt. Lemmon Survey MPS 417138
2013 08 09.37980 22 27 31.35 -01 31 24.9 19.6 V 703 – Catalina Sky Survey MPS 473624
2013 08 09.38626 22 27 30.96 -01 31 27.6 19.6 V 703 – Catalina Sky Survey MPS 473624
2013 08 09.39274 22 27 30.78 -01 31 30.5 19.1 V 703 – Catalina Sky Survey MPS 473624
2013 08 09.39925 22 27 30.38 -01 31 32.3 19.4 V 703 – Catalina Sky Survey MPS 473624
2013 08 12.47465 22 25 13.969 -01 52 34.51 19.7 w F51 – Pan-STARRS 1, Haleakala MPS 474299
2013 08 12.48964 22 25 13.227 -01 52 41.01 19.7 w F51 – Pan-STARRS 1, Haleakala MPS 474299
2013 08 12.50466 22 25 12.480 -01 52 47.51 19.7 w F51 – Pan-STARRS 1, Haleakala MPS 474299
2013 08 12.51676 22 25 11.883 -01 52 52.65 20.3 g F51 – Pan-STARRS 1, Haleakala MPS 474299
2013 08 12.52777 22 25 11.338 -01 52 57.51 20.2 g F51 – Pan-STARRS 1, Haleakala MPS 474299
2013 08 28.20997 22 12 05.11 -04 06 33.6 20.0 G G45 – Space Surveillance Telescope, Atom Site MPS 1609051
2013 08 28.24166 22 12 03.43 -04 06 51.3 19.3 V G96 – Mt. Lemmon Survey MPS 474829
2013 08 28.24637 22 12 03.18 -04 06 53.9 19.2 V G96 – Mt. Lemmon Survey MPS 474829
2013 08 28.24870 22 12 03.03 -04 06 55.4 19.9 G G45 – Space Surveillance Telescope, Atom Site MPS 1609051
2013 08 28.25106 22 12 02.93 -04 06 56.4 19.3 V G96 – Mt. Lemmon Survey MPS 474829
2013 08 28.25574 22 12 02.68 -04 06 59.0 19.3 V G96 – Mt. Lemmon Survey MPS 474829
2013 08 28.27949 22 12 01.37 -04 07 12.4 19.9 G G45 – Space Surveillance Telescope, Atom Site MPS 1609051
2013 08 28.30995 22 11 59.77 -04 07 29.4 20.1 G G45 – Space Surveillance Telescope, Atom Site MPS 1609051
2013 09 02.19554 22 07 59.08 -04 53 36.4 19.2 V G96 – Mt. Lemmon Survey MPS 476048
2013 09 02.20315 22 07 58.69 -04 53 41.0 19.2 V G96 – Mt. Lemmon Survey MPS 476048
2013 09 02.21076 22 07 58.31 -04 53 45.2 19.2 V G96 – Mt. Lemmon Survey MPS 476048
2013 09 02.21836 22 07 57.91 -04 53 49.7 19.3 V G96 – Mt. Lemmon Survey MPS 476048
2013 09 25.19822 21 55 41.38 -08 05 50.4 20.4 V 703 – Catalina Sky Survey MPS 478638
2013 09 25.20677 21 55 41.32 -08 05 53.2 20.7 V 703 – Catalina Sky Survey MPS 478638
2013 09 25.21544 21 55 41.01 -08 05 58.5 20.5 V 703 – Catalina Sky Survey MPS 478638
2013 09 25.22381 21 55 40.94 -08 06 01.5 20.4 V 703 – Catalina Sky Survey MPS 478638
2013 09 29.16381 21 55 07.12 -08 30 18.0 20.5 V G96 – Mt. Lemmon Survey MPS 479908
2013 09 29.17281 21 55 07.06 -08 30 20.8 20.2 V G96 – Mt. Lemmon Survey MPS 479908
2013 09 29.18184 21 55 06.99 -08 30 24.3 20.1 V G96 – Mt. Lemmon Survey MPS 479908
2013 09 29.19086 21 55 06.91 -08 30 27.3 20.3 V G96 – Mt. Lemmon Survey MPS 479908
2013 11 08.10142 22 15 20.06 -09 31 48.8 20.8 V G96 – Mt. Lemmon Survey MPS 488310
2013 11 08.10885 22 15 20.44 -09 31 47.4 20.9 V G96 – Mt. Lemmon Survey MPS 488310
2013 11 08.11628 22 15 20.92 -09 31 47.0 21.3 V G96 – Mt. Lemmon Survey MPS 488310
2013 11 08.12372 22 15 21.33 -09 31 45.5 20.6 V G96 – Mt. Lemmon Survey MPS 488310
2016 06 02.10028 17 25 17.16 -11 44 28.9 19.3 R J04 – ESA Optical Ground Station, Tenerife MPS 716372
2016 06 02.12366 17 25 15.83 -11 44 22.8 19.2 R J04 – ESA Optical Ground Station, Tenerife MPS 716372
2016 06 07.33170 17 20 40.59 -11 23 38.1 19.2 V G96 – Mt. Lemmon Survey MPS 716372
